User: anonymous   Login
Location: Unspecified
(0.0000°N, 0.0000°E)
Time: 21:56:44
(UTC+00:00)
Language:

ARTEMIS - Orbit

View from above orbital plane
View from above orbital plane
View from above satellite
View from above satellite

Ground track
Ground track

The orbit data is extracted from the following two-line orbital elements,

1 26863U 01029A   18317.28384071  .00000017  00000-0  00000+0 0  9997
2 26863  13.1827  28.0760 0006339 121.5855 257.1307  0.99288942 64567
Epoch (UTC): 13 November 2018 06:48:43
Eccentricity: 0.0006339
inclination: 13.1827°
perigee height: 36037 km
apogee height: 36091 km
right ascension of ascending node: 28.0760°
argument of perigee: 121.5855°
revolutions per day: 0.99288942
mean anomaly at epoch: 257.1307°
orbit number at epoch: 6456

The dashed part of the orbit path shows where the satellite is in the earth's shadow,  

DLR